Wind_Speed
23 21 20 18 16 14 12 11 11 10 8 7 7 6 6 6 6 6 6 6 7 7 7 6 6 6 7 8 10 12 14 16 18 19 19 18 19 19 20 21 21 21 22 22
21 19 18 17 17 16 15 13 12 11 10 9 9 8 7 7 8 8 7 7 6 5 4 3 4 6 8 10 12 14 15 16 17 16 17 17 17 17 18 19 20 21 21 22
19 17 15 14 14 14 13 13 12 12 12 10 10 10 9 9 9 9 8 6 5 3 1 1 3 5 7 9 11 12 13 14 14 14 14 15 16 17 19 20 20 21 22 22
17 15 14 14 13 13 12 12 12 12 12 11 11 11 10 10 10 10 10 9 7 6 4 3 3 4 5 7 8 10 12 13 15 15 16 17 18 19 20 21 22 22 23 23
16 14 12 12 12 12 12 12 11 11 11 11 11 12 12 12 12 13 12 11 9 8 6 5 4 5 6 7 9 11 13 14 15 17 17 18 19 20 21 22 23 23 23 22
14 12 11 10 9 9 9 10 10 10 10 11 12 12 12 12 13 13 13 11 10 8 7 6 6 7 8 9 11 12 13 15 16 17 18 19 20 21 21 22 22 22 22 21
13 11 10 9 8 8 8 7 8 9 10 11 12 12 13 13 13 12 12 11 10 9 8 8 9 9 10 11 12 13 15 16 16 17 18 19 19 19 20 20 19 19 19 18
12 10 9 7 7 7 7 7 8 8 10 11 11 11 11 11 11 11 11 10 10 10 10 11 11 12 12 13 14 15 16 16 17 17 18 18 18 17 17 17 16 16 16 16
13 10 8 7 7 6 6 6 7 8 9 9 9 9 9 10 10 11 11 12 12 12 12 13 14 14 15 15 16 16 17 17 17 18 17 17 17 16 16 15 14 14 13 14
14 10 8 7 7 6 6 5 5 6 6 7 7 7 8 9 10 11 12 13 13 13 14 15 16 17 17 17 18 18 18 18 18 17 17 17 17 16 15 14 13 12 11 11
13 10 8 7 7 6 6 5 5 5 5 5 5 5 7 8 10 11 12 13 14 14 15 16 16 17 17 18 18 17 17 18 18 18 17 18 17 16 15 14 13 11 10 10
12 9 7 7 7 6 6 5 4 4 4 4 4 5 6 8 9 11 13 14 14 15 16 16 16 16 17 17 17 17 17 18 18 18 18 18 18 17 16 15 13 12 12 11
12 8 5 6 6 6 5 4 3 3 2 2 3 4 6 7 9 11 12 13 14 15 16 16 16 16 16 16 17 17 18 18 18 19 19 19 19 19 18 17 16 15 14 13
13 8 5 5 5 5 4 4 3 2 1 1 2 3 5 6 7 10 11 12 13 14 15 15 15 15 16 16 16 17 18 18 19 19 19 20 20 20 20 19 18 17 17 16
13 9 7 6 5 4 3 3 3 3 3 2 2 2 4 5 6 8 10 11 12 13 14 14 15 15 15 15 16 17 17 18 19 19 20 20 20 21 22 22 21 20 19 19
13 11 8 7 5 4 3 4 4 4 4 4 3 3 3 4 5 6 8 9 10 11 12 13 13 14 14 14 15 16 16 17 18 19 19 19 20 20 21 22 22 22 21 21
12 11 9 8 7 5 4 5 5 6 5 5 5 4 3 3 3 4 5 7 8 9 10 11 12 13 13 14 14 15 15 16 17 17 18 18 19 19 20 21 22 22 23 23
11 10 10 9 8 7 6 6 6 7 7 7 6 6 5 4 3 3 3 5 6 7 8 9 10 11 12 12 13 14 14 15 16 16 17 17 18 18 19 19 20 21 21 22
10 9 10 10 9 8 8 8 8 8 8 8 7 7 6 5 5 4 3 3 4 5 6 7 9 10 10 11 12 13 13 14 14 15 16 16 17 17 18 18 19 19 20 20
11 10 9 10 10 10 9 9 9 9 9 8 7 7 7 6 6 5 4 3 3 3 4 6 7 8 9 9 10 11 12 13 14 14 15 16 16 17 17 17 18 18 18 19
15 12 11 10 10 10 10 10 11 11 10 9 7 6 7 7 7 7 7 6 5 4 4 4 5 6 7 8 8 9 11 12 12 13 14 15 16 17 17 17 17 17 17 17
19 16 14 13 12 11 11 11 11 11 12 11 8 6 5 6 7 8 8 8 7 6 5 4 4 5 6 6 7 8 8 9 10 11 13 14 14 15 16 16 16 16 16 16
23 21 19 16 15 13 13 12 11 11 11 11 10 8 6 6 6 7 8 9 9 8 8 6 5 5 5 5 5 6 7 7 8 9 10 12 13 14 14 15 15 15 16 16
27 26 23 21 19 17 16 15 13 12 11 11 11 9 8 7 6 7 8 9 9 9 10 9 8 6 6 5 5 5 6 6 7 8 9 10 11 12 13 14 14 14 15 15
30 29 28 26 24 22 20 18 17 15 14 12 11 10 9 8 7 7 9 10 10 10 10 11 11 10 8 7 6 6 6 7 7 8 8 9 10 11 12 12 13 13 13 14
33 32 32 30 29 27 25 23 21 19 17 15 13 11 10 9 8 8 8 9 11 12 12 12 12 12 12 10 9 8 7 7 8 8 9 9 9 10 10 11 11 12 12 13
36 35 34 34 33 31 29 27 25 23 21 19 17 15 13 11 10 9 8 8 9 11 13 13 13 13 14 14 13 11 10 9 8 9 9 9 10 10 9 10 10 11 11 12
Wind_Direction
17 27 35 45 53 61 74 85 90 88 89 84 77 80 75 78 85 96 109 115 125 132 140 155 171 195 220 241 255 266 276 285 291 291 291 292 293 290 285 284 284 284 284 285
22 30 42 55 63 72 81 83 86 86 82 73 72 70 67 70 76 85 99 109 118 139 156 178 208 232 248 262 271 277 282 290 296 296 294 293 292 290 289 289 288 287 286 286
26 33 41 51 61 70 78 79 86 88 85 78 72 67 68 70 75 76 80 81 83 93 120 218 266 275 281 288 289 290 293 296 299 301 298 295 292 291 291 289 288 288 287 288
28 34 42 49 59 68 74 81 84 87 84 76 68 66 67 67 71 74 72 71 68 66 57 34 352 320 306 306 308 307 306 304 304 302 299 296 295 293 292 291 290 288 287 287
27 33 39 50 60 66 71 79 81 80 79 77 75 70 72 74 75 75 72 68 63 55 46 33 13 352 337 329 323 318 313 309 307 305 302 299 296 294 293 291 290 288 286 285
24 30 37 44 53 57 62 77 77 75 78 81 80 77 75 76 73 70 66 60 53 42 31 18 5 352 341 334 328 322 317 313 311 309 306 303 300 298 295 292 290 288 285 283
20 27 33 37 47 52 63 74 79 79 82 84 82 79 74 70 66 61 56 49 41 31 20 10 1 353 345 337 331 326 322 320 317 316 314 311 308 304 300 296 292 288 285 282
15 22 28 34 45 52 65 76 85 87 88 85 82 76 71 66 60 53 46 41 36 30 22 14 6 357 350 343 339 336 333 331 329 327 325 322 318 313 308 302 297 293 290 286
16 22 33 44 47 55 65 78 91 96 96 89 83 76 67 58 50 44 41 38 33 28 22 16 9 2 357 353 351 348 345 344 342 340 337 335 332 328 322 315 309 304 300 294
23 34 46 54 54 61 67 77 99 106 100 91 85 74 61 53 48 44 41 36 29 24 21 17 11 6 2 0 359 358 358 357 356 355 352 350 346 342 337 332 326 320 314 308
27 41 54 57 54 58 61 70 94 112 106 96 86 68 58 51 46 41 36 30 27 25 22 18 13 10 8 8 8 10 10 10 8 6 3 1 358 357 355 353 350 347 342 335
23 37 52 51 48 53 59 66 86 102 106 96 76 59 50 45 41 37 32 29 27 24 22 20 18 17 16 17 19 21 20 19 18 16 14 13 13 12 12 12 12 11 9 4
21 33 45 38 37 40 51 58 70 86 93 83 60 46 41 39 38 34 31 29 27 26 24 23 22 23 24 26 27 27 26 25 24 24 23 23 22 22 23 25 26 26 25 24
22 31 33 24 22 28 42 46 42 40 40 35 24 29 32 34 35 33 31 29 28 27 26 26 27 27 28 29 30 30 30 30 30 31 31 31 31 32 33 34 34 35 35 34
21 26 27 22 19 17 14 9 4 355 347 343 347 5 20 26 30 30 30 29 28 28 28 28 29 29 30 30 31 33 33 34 35 36 37 38 38 39 40 40 40 41 41 40
15 20 21 18 13 5 348 331 327 326 326 325 321 326 347 7 20 25 27 27 28 28 29 29 29 30 31 32 33 34 35 36 37 38 39 40 40 41 41 42 42 43 43 44
3 9 11 9 5 353 336 327 323 318 313 308 306 304 309 330 356 12 18 22 24 26 27 27 28 30 31 32 32 33 33 34 35 36 37 38 39 40 41 43 44 45 46 47
348 356 360 359 358 354 338 324 321 319 315 306 295 291 287 285 305 335 356 9 16 20 22 24 25 27 28 30 31 31 32 33 33 34 35 36 37 38 39 42 44 45 46 47
321 336 348 352 351 348 344 337 329 324 320 311 295 285 279 272 273 286 305 333 357 8 14 18 20 21 23 25 28 29 30 31 31 33 34 34 35 36 37 39 42 43 44 45
291 305 321 335 345 350 351 350 345 338 330 321 303 284 275 267 263 266 272 284 309 338 355 6 11 14 16 19 23 26 29 31 32 33 34 34 34 34 35 37 39 41 42 43
272 279 292 307 321 335 345 352 354 351 345 336 319 291 276 268 260 255 257 264 274 293 319 341 355 3 7 12 17 22 27 30 33 34 35 35 35 35 35 36 37 38 38 39
261 265 271 282 295 309 323 335 346 353 356 353 343 321 293 276 261 252 252 257 263 271 284 304 326 342 353 1 6 12 17 23 28 32 34 33 33 32 32 32 33 33 33 33
253 255 259 266 276 288 299 310 323 336 347 352 352 347 329 294 267 254 252 255 259 261 266 276 290 309 325 338 348 354 1 9 16 24 27 27 26 26 25 25 26 27 27 27
249 250 252 257 263 272 282 292 302 313 326 339 345 344 341 328 292 263 256 257 259 259 259 263 270 281 295 307 319 331 339 347 356 5 13 17 19 20 20 19 20 21 22 22
247 247 248 251 255 260 267 275 285 294 304 315 327 336 335 333 323 292 267 260 259 261 261 260 262 267 275 284 293 303 315 324 333 343 353 1 7 10 13 15 15 15 15 16
246 246 246 248 250 253 257 263 270 278 286 294 303 313 321 324 323 319 297 275 264 260 261 262 261 262 265 270 278 286 295 305 314 323 332 343 352 359 4 8 11 12 11 12
244 244 245 245 247 249 251 255 260 266 272 279 286 293 300 305 310 311 310 300 282 268 262 260 261 262 262 263 267 273 281 289 298 307 315 325 334 343 351 357 2 5 6 6
Height
5774 5769 5764 5760 5757 5756 5755 5756 5758 5759 5761 5762 5763 5764 5764 5764 5765 5765 5766 5767 5769 5770 5772 5773 5775 5777 5779 5781 5783 5784 5785 5786 5786 5785 5785 5784 5783 5782 5781 5780 5779 5777 5776 5775
5778 5773 5769 5766 5763 5762 5762 5762 5763 5764 5765 5765 5765 5766 5766 5766 5766 5767 5768 5769 5770 5771 5773 5774 5776 5778 5779 5780 5781 5782 5782 5783 5782 5781 5780 5779 5778 5777 5776 5775 5773 5771 5770 5768
5781 5777 5775 5772 5770 5768 5767 5767 5767 5768 5769 5768 5769 5769 5769 5769 5768 5769 5770 5771 5772 5773 5774 5775 5777 5778 5779 5779 5779 5780 5780 5779 5779 5777 5776 5775 5774 5772 5771 5769 5767 5766 5764 5762
5785 5783 5779 5779 5774 5773 5773 5772 5772 5772 5772 5772 5772 5772 5772 5772 5772 5772 5773 5774 5774 5775 5775 5776 5777 5777 5778 5778 5778 5777 5777 5776 5775 5774 5772 5770 5768 5766 5765 5763 5761 5760 5758 5756
5788 5785 5783 5781 5779 5778 5777 5777 5776 5776 5776 5775 5775 5775 5775 5775 5775 5775 5775 5776 5777 5777 5777 5778 5778 5778 5777 5777 5776 5775 5774 5773 5771 5769 5767 5765 5763 5761 5759 5757 5755 5753 5751 5750
5791 5788 5786 5786 5783 5781 5782 5780 5780 5779 5779 5779 5779 5779 5779 5778 5778 5779 5779 5779 5779 5779 5779 5779 5778 5777 5776 5775 5774 5773 5771 5769 5767 5764 5762 5759 5757 5755 5752 5750 5748 5746 5744 5743
5792 5790 5788 5787 5786 5785 5785 5785 5783 5782 5782 5782 5782 5782 5782 5782 5782 5782 5781 5781 5781 5780 5780 5779 5778 5776 5775 5773 5772 5770 5767 5765 5762 5759 5757 5754 5751 5749 5746 5743 5741 5740 5738 5736
5793 5791 5792 5788 5788 5788 5788 5786 5786 5786 5785 5785 5785 5786 5786 5785 5785 5785 5784 5783 5782 5781 5779 5778 5777 5775 5773 5771 5769 5766 5764 5761 5758 5755 5752 5749 5746 5743 5740 5738 5736 5734 5732 5731
5795 5795 5791 5790 5790 5790 5789 5789 5789 5789 5789 5789 5789 5789 5789 5789 5788 5787 5786 5785 5783 5781 5779 5778 5776 5774 5772 5769 5766 5763 5760 5757 5754 5751 5748 5745 5742 5739 5736 5733 5731 5729 5727 5726
5797 5794 5793 5792 5792 5792 5792 5792 5792 5792 5792 5792 5792 5792 5792 5792 5791 5789 5788 5786 5784 5782 5780 5778 5775 5773 5770 5767 5764 5761 5758 5755 5752 5749 5746 5743 5739 5736 5733 5730 5727 5725 5723 5721
5800 5798 5796 5795 5795 5794 5794 5794 5794 5794 5794 5795 5795 5795 5794 5794 5793 5791 5790 5788 5786 5783 5781 5778 5775 5773 5770 5767 5764 5761 5759 5756 5752 5749 5746 5742 5739 5735 5731 5728 5725 5723 5721 5719
5803 5801 5800 5799 5798 5797 5797 5796 5796 5796 5797 5797 5797 5797 5796 5795 5794 5793 5791 5789 5787 5785 5782 5780 5777 5774 5771 5769 5766 5763 5760 5757 5754 5751 5747 5743 5739 5736 5732 5728 5725 5723 5720 5718
5806 5803 5802 5801 5800 5799 5799 5799 5798 5798 5798 5798 5798 5798 5798 5797 5796 5795 5793 5791 5789 5787 5784 5782 5779 5776 5774 5771 5768 5766 5763 5760 5756 5753 5749 5745 5741 5738 5734 5730 5727 5724 5721 5718
5809 5806 5804 5803 5802 5801 5801 5801 5800 5800 5800 5800 5799 5799 5799 5798 5797 5796 5795 5793 5791 5789 5786 5784 5781 5779 5776 5774 5771 5768 5766 5763 5759 5756 5752 5748 5745 5741 5737 5733 5730 5727 5724 5721
5812 5809 5807 5805 5804 5803 5802 5802 5802 5801 5801 5801 5800 5800 5800 5799 5799 5798 5796 5795 5793 5791 5789 5786 5784 5782 5779 5777 5774 5772 5769 5766 5763 5759 5756 5752 5749 5745 5742 5738 5734 5731 5728 5725
5815 5812 5809 5807 5806 5805 5804 5803 5802 5802 5801 5801 5801 5801 5800 5800 5799 5799 5798 5796 5795 5793 5791 5789 5787 5784 5782 5780 5777 5775 5772 5769 5766 5763 5760 5757 5753 5750 5747 5743 5739 5736 5733 5730
5816 5813 5811 5809 5807 5806 5805 5803 5802 5801 5801 5801 5800 5800 5800 5800 5800 5799 5798 5797 5796 5794 5793 5791 5789 5787 5785 5782 5780 5778 5775 5773 5770 5767 5764 5761 5757 5754 5751 5748 5745 5741 5738 5735
5816 5814 5812 5810 5808 5807 5805 5804 5802 5801 5800 5799 5799 5799 5799 5799 5799 5799 5799 5798 5797 5796 5794 5793 5791 5789 5787 5785 5783 5780 5778 5775 5773 5770 5767 5764 5761 5758 5755 5752 5749 5746 5743 5740
5815 5814 5812 5810 5809 5807 5805 5804 5802 5800 5799 5797 5797 5797 5797 5797 5798 5798 5798 5797 5797 5796 5795 5793 5792 5790 5789 5787 5785 5782 5780 5778 5775 5773 5770 5767 5765 5762 5759 5756 5754 5751 5748 5745
5813 5812 5811 5810 5808 5807 5805 5803 5801 5799 5798 5796 5795 5795 5795 5795 5796 5796 5796 5796 5796 5795 5795 5794 5792 5791 5790 5788 5786 5784 5782 5780 5778 5775 5773 5770 5768 5765 5762 5760 5757 5755 5752 5749
5810 5809 5809 5808 5807 5806 5804 5802 5800 5798 5796 5794 5793 5792 5792 5793 5793 5794 5794 5795 5795 5794 5794 5793 5792 5791 5790 5789 5788 5786 5784 5782 5780 5777 5775 5773 5770 5768 5766 5763 5761 5758 5755 5753
5805 5805 5805 5805 5804 5804 5802 5801 5799 5798 5796 5794 5792 5791 5790 5790 5790 5791 5792 5792 5793 5793 5793 5792 5792 5791 5790 5789 5788 5787 5785 5783 5781 5779 5777 5775 5773 5770 5768 5766 5763 5761 5758 5756
5799 5800 5800 5801 5801 5800 5800 5799 5798 5797 5795 5793 5791 5789 5788 5788 5788 5788 5789 5790 5790 5790 5791 5791 5790 5790 5789 5789 5788 5787 5785 5784 5782 5780 5778 5776 5774 5772 5770 5768 5766 5763 5761 5759
5791 5792 5794 5795 5795 5796 5796 5795 5795 5794 5793 5792 5790 5788 5787 5786 5785 5785 5786 5786 5787 5787 5788 5788 5788 5788 5788 5787 5787 5786 5785 5784 5782 5781 5779 5777 5775 5773 5771 5769 5767 5765 5763 5760
5782 5784 5786 5787 5789 5790 5790 5791 5791 5790 5790 5789 5788 5786 5785 5784 5783 5782 5782 5783 5783 5784 5784 5785 5785 5785 5785 5785 5785 5784 5784 5783 5782 5781 5779 5777 5775 5773 5771 5770 5768 5766 5764 5762
5771 5774 5776 5779 5781 5782 5783 5784 5785 5785 5785 5785 5784 5783 5782 5782 5781 5780 5779 5779 5779 5779 5780 5780 5781 5782 5782 5782 5782 5782 5781 5781 5780 5779 5778 5777 5775 5773 5771 5770 5768 5766 5764 5762
5760 5763 5766 5769 5771 5773 5775 5776 5778 5778 5779 5779 5779 5779 5778 5778 5777 5777 5776 5775 5774 5775 5775 5776 5776 5777 5778 5778 5779 5779 5778 5778 5778 5777 5776 5775 5774 5772 5771 5769 5768 5766 5764 5762